Spokane Fairchild, WA

1:54 PM PDT on April 26, 2017 (GMT -0700)
Fairchild Air Force Base

Weather History for KSKA - March, 2012

Change the Weather History Date:

Friday, March 9, 2012

  Actual Average Record
Temperature  
Mean Temperature 48 °F -  
Max Temperature 61 °F 44 °F 61 °F (2012)
Min Temperature 36 °F 28 °F 16 °F (2009)
Degree Days  
Heating Degree Days 16    
Moisture  
Dew Point 29 °F    
Average Humidity 53    
Maximum Humidity 77    
Minimum Humidity 27    
Precipitation  
Precipitation 0.00 in - - ()
Sea Level Pressure  
Sea Level Pressure 30.11 in    
Wind  
Wind Speed 7 mph (South)    
Max Wind Speed 24 mph    
Max Gust Speed 30 mph    
Visibility 10 miles    
Events      
Averages and records for this station are not official NWS values.
T = Trace of Precipitation, MM = Missing Value Source: NWS Daily Summary

Daily Weather History Graph

Daily Weather History Graph

Search for Another Location

Airport or City:

Trip Planner

Search our weather history database for the weather conditions in past years. The results will help you decide how hot, cold, wet, or windy it might be!

Date:

Astronomy

Mar. 09, 2012 Rise Set
Actual Time 6:14 AM PST 5:48 PM PST
Civil Twilight 5:43 AM PST 6:19 PM PST
Nautical Twilight 5:08 AM PST 6:54 PM PST
Astronomical Twilight 4:31 AM PST 7:31 PM PST
Moon 8:07 PM PST (3/9) 6:25 AM PST (3/9)
Length of Visible Light 12h 35m
Length of Day
11h 33m
Full, 97% of the Moon is Illuminated
Mar 9
Full
Mar 14
Last Quarter
Mar 22
New
Mar 30
First Quarter
Apr 6
Full

Hourly Weather History & Observations

Time (PST) Temp. Windchill Dew Point Humidity Pressure Visibility Wind Dir Wind Speed Gust Speed Precip Events Conditions
12:55 AM 39.9 °F - 30.9 °F 70% 30.25 in 10.0 mi Calm Calm - N/A   Clear
1:55 AM 39.7 °F 36.5 °F 30.0 °F 68% 30.25 in 10.0 mi ESE 4.6 mph - N/A   Clear
2:55 AM 38.5 °F 35.0 °F 30.4 °F 73% 30.22 in 10.0 mi ESE 4.6 mph - N/A   Clear
3:55 AM 37.6 °F 31.0 °F 30.7 °F 76% 30.21 in 10.0 mi SE 9.2 mph - N/A   Clear
4:55 AM 38.1 °F - 28.6 °F 69% 30.22 in 10.0 mi Calm Calm - N/A   Clear
5:55 AM 36.1 °F 32.3 °F 29.5 °F 77% 30.23 in 10.0 mi East 4.6 mph - N/A   Clear
6:55 AM 37.0 °F 33.3 °F 29.8 °F 75% 30.21 in 10.0 mi ESE 4.6 mph - N/A   Clear
7:55 AM 41.5 °F 35.0 °F 30.0 °F 64% 30.21 in 10.0 mi SSE 11.5 mph - N/A   Clear
8:55 AM 47.5 °F - 29.5 °F 50% 30.20 in 10.0 mi South 10.4 mph - N/A   Clear
9:55 AM 52.9 °F - 28.9 °F 40% 30.19 in 10.0 mi South 11.5 mph - N/A   Clear
10:55 AM 56.7 °F - 30.4 °F 37% 30.17 in 10.0 mi South 16.1 mph - N/A   Clear
11:55 AM 59.4 °F - 30.2 °F 33% 30.14 in 10.0 mi SSW 18.4 mph 25.3 mph N/A   Clear
12:55 PM 60.1 °F - 30.2 °F 32% 30.10 in 10.0 mi SW 19.6 mph 28.8 mph N/A   Clear
1:55 PM 60.8 °F - 28.2 °F 29% 30.06 in 10.0 mi SW 24.2 mph 29.9 mph N/A   Clear
2:55 PM 61.3 °F - 26.4 °F 27% 30.04 in 10.0 mi SSW 23.0 mph 28.8 mph N/A   Clear
3:55 PM 60.1 °F - 26.8 °F 28% 30.04 in 10.0 mi SW 17.3 mph - N/A   Clear
4:55 PM 55.8 °F - 27.3 °F 34% 30.01 in 10.0 mi SW 10.4 mph - N/A   Clear
5:55 PM 51.3 °F - 28.0 °F 41% 30.01 in 10.0 mi SSW 5.8 mph - N/A   Clear
6:55 PM 46.4 °F 43.5 °F 28.4 °F 50% 30.01 in 10.0 mi SSW 5.8 mph - N/A   Clear
7:55 PM 44.8 °F - 27.0 °F 50% 29.99 in 10.0 mi Calm Calm - N/A   Clear
8:55 PM 44.1 °F 42.5 °F 26.8 °F 51% 29.96 in 10.0 mi South 3.5 mph - N/A   Clear
9:55 PM 40.8 °F 36.9 °F 26.6 °F 57% 29.95 in 10.0 mi SSE 5.8 mph - N/A   Clear
10:55 PM 38.7 °F 34.3 °F 27.5 °F 64% 29.94 in 10.0 mi South 5.8 mph - N/A   Clear
11:55 PM 39.4 °F 32.7 °F 28.8 °F 66% 29.91 in 10.0 mi South 10.4 mph - N/A   Clear